Home   Weather   Roanoke   Past weeks
Flag for USA

Past Weather in Roanoke, Virginia, USA — Yesterday and Last 2 Weeks

Now
32 °F

Clear.


Feels Like: 27 °F
Forecast: 26 / 47 °F
Wind: 5 mph from Northwest

Location: Roanoke Regional Airport

Current Time: Jan 15, 2019 at 10:54:22 pm

Latest Report: Jan 15, 2019 at 9:54 pm


Visibility: 10 mi

Pressure: 30.21 "Hg

Humidity: 73%

Dew Point: 24 °F

Location of RoanokeLocation

Past Weather in Roanoke — Graph

°F

Roanoke Temperature Yesterday

Maximum temperature yesterday: 36 °F (at 2:54 pm)
Minimum temperature yesterday: 29 °F (at 4:54 am)
Average temperature yesterday: 33 °F

High & Low Weather Summary for the Past Weeks

 TemperatureHumidityPressure
High65 °F (Jan 8, 1:54 pm)100% (Jan 4, 5:37 pm)30.53 "Hg (Jan 4, 5:37 pm)
Low21 °F (Jan 11, 3:54 am)29% (Jan 6, 3:54 pm)29.55 "Hg (Jan 5, 5:54 am)
Average40 °F70%30.13 "Hg
* Reported Dec 31 8:31 pm — Jan 15 8:54 pm, Roanoke. Weather by CustomWeather, © 2019

Note: Actual official high and low records may vary slightly from our data, if they occured in-between our weather recording intervals... More about our weather records

Advertising

Roanoke Weather History for the Previous 24 Hours

Scroll right to see more
 ConditionsComfort  
Time TempWeatherWind HumidityBarometerVisibility
8:54 pm
Tue, Jan 15
32 °FPassing clouds.7 mph73%30.22 "Hg10 mi
8:16 pm32 °FPassing clouds.7 mph73%30.20 "Hg10 mi
7:54 pm32 °FPassing clouds.5 mph73%30.23 "Hg10 mi
6:54 pm34 °FPassing clouds.10 mph67%30.23 "Hg10 mi
5:54 pm33 °FPassing clouds.9 mph72%30.22 "Hg10 mi
4:54 pm36 °FPassing clouds.10 mph64%30.22 "Hg10 mi
3:54 pm39 °FPassing clouds.12 mph60%30.21 "Hg10 mi
2:54 pm41 °FPassing clouds.13 mph55%30.20 "Hg10 mi
1:54 pm40 °FPassing clouds.12 mph63%30.20 "Hg10 mi
12:54 pm41 °FScattered clouds.8 mph60%30.22 "Hg10 mi
11:54 am38 °FScattered clouds.12 mph63%30.24 "Hg10 mi
10:54 am37 °FScattered clouds.14 mph65%30.27 "Hg10 mi
10:28 am36 °FPassing clouds.12 mph64%30.26 "Hg10 mi
9:54 am36 °FPartly sunny.13 mph67%30.27 "Hg10 mi
9:34 am35 °FScattered clouds.13 mph70%30.24 "Hg10 mi
8:54 am34 °FOvercast.7 mph73%30.25 "Hg10 mi
7:54 am34 °FOvercast.10 mph73%30.23 "Hg10 mi
6:54 am34 °FOvercast.8 mph73%30.23 "Hg10 mi
5:54 am34 °FOvercast.7 mph73%30.21 "Hg10 mi
4:54 am33 °FPassing clouds.7 mph78%30.20 "Hg10 mi
3:54 am33 °FMostly cloudy.No wind85%30.21 "Hg10 mi
2:54 am35 °FMostly cloudy.No wind82%30.21 "Hg10 mi
2:19 am34 °FMostly cloudy.6 mph85%30.19 "Hg10 mi
1:54 am35 °FMostly cloudy.3 mph82%30.21 "Hg10 mi
12:54 am35 °FMostly cloudy.3 mph85%30.21 "Hg10 mi
12:22 am35 °FMostly cloudy.3 mph85%30.19 "Hg10 mi
11:54 pm
Mon, Jan 14
35 °FMostly cloudy.3 mph82%30.22 "Hg10 mi
11:27 pm35 °FMostly cloudy.No wind85%30.20 "Hg10 mi
10:54 pm35 °FMostly cloudy.No wind85%30.22 "Hg10 mi
Weather by CustomWeather, © 2019

See weather overview